Date,TemperatureHighF,TemperatureAvgF,TemperatureLowF,DewpointHighF,DewpointAvgF,DewpointLowF,HumidityHigh,HumidityAvg,HumidityLow,PressureMaxIn,PressureMinIn,WindSpeedMaxMPH,WindSpeedAvgMPH,GustSpeedMaxMPH,PrecipitationSumIn
2013-3-7,38.6,32.9,28.8,27.1,24.3,21.9,86,70,60,29.43,29.35,2,0,12,0.00
2013-3-8,42.9,32.8,25.5,26.2,24.1,20.2,88,71,47,29.52,29.33,9,0,22,0.30
2013-3-9,56.0,34.2,18.1,27.0,22.1,15.0,88,66,29,29.60,29.49,0,0,1,0.00
2013-3-10,53.7,37.4,15.7,30.3,25.3,13.1,89,64,36,29.64,29.45,0,0,0,0.00
2013-3-11,43.2,37.8,31.0,37.6,31.4,27.9,88,78,64,29.49,29.31,0,0,0,0.00
2013-3-12,46.6,39.6,34.9,44.8,38.1,33.8,96,94,82,29.30,28.95,2,0,11,1.80
2013-3-13,44.1,34.9,24.1,36.7,29.3,-99.9,95,81,56,29.06,28.98,5,-8,14,0.00
2013-3-14,32.3,25.3,16.6,26.8,15.7,6.6,93,67,50,29.12,28.96,7,1,17,0.00
2013-3-15,36.9,24.8,11.7,27.1,13.7,4.4,90,63,36,29.14,28.83,6,1,14,0.00
2013-3-16,32.9,24.8,14.6,19.9,14.2,10.0,86,65,43,29.14,28.96,4,0,11,0.00
2013-3-17,28.6,19.5,8.5,14.8,7.8,1.7,87,62,39,29.59,29.14,7,1,19,0.00
2013-3-18,35.6,21.3,3.0,20.3,6.9,-1.2,83,56,29,29.70,29.41,3,0,11,0.00
2013-3-19,30.2,27.4,25.2,28.0,24.7,20.7,92,89,80,29.41,28.99,0,0,10,0.00
2013-3-20,35.2,27.2,16.6,26.7,20.6,12.5,92,76,62,29.00,28.91,8,1,16,1.10
2013-3-21,41.3,23.2,7.4,22.8,13.0,4.4,88,68,35,29.03,28.86,3,0,11,0.00
2013-3-22,38.4,24.7,8.0,25.2,16.7,5.0,88,73,46,28.99,28.88,5,0,13,0.00
2013-3-23,39.3,30.7,19.0,22.8,20.5,15.2,86,66,48,29.04,28.91,10,2,22,0.00
2013-3-24,41.5,33.3,23.4,25.3,23.1,19.4,85,66,52,29.11,29.03,7,0,15,0.00
2013-3-25,43.9,31.5,17.7,29.8,23.2,14.9,89,72,49,29.07,28.81,3,0,9,0.00
2013-3-26,45.9,35.8,25.6,29.2,25.0,21.2,87,66,41,29.07,28.86,7,0,16,0.00
2013-3-27,48.4,34.5,19.8,31.2,25.1,17.4,92,71,43,29.18,29.05,7,0,18,0.00
2013-3-28,49.9,37.1,30.5,35.3,31.0,27.4,94,80,51,29.31,29.18,3,0,11,0.00
2013-3-29,50.7,38.7,28.8,37.6,31.9,26.9,93,77,57,29.32,29.26,5,0,14,0.00
2013-3-30,52.4,36.5,24.2,34.6,24.5,19.5,93,67,30,29.38,29.28,4,0,14,0.00
2013-3-31,34.5,23.6,19.4,25.6,19.7,16.6,89,84,68,29.39,29.32,0,0,0,0.00
2013-4-1,48.4,36.5,28.0,43.8,29.8,13.0,94,78,48,29.04,28.79,9,1,21,0.90
2013-4-2,36.7,28.3,22.2,17.3,11.9,-99.9,59,50,38,29.13,29.02,9,-1,24,0.00
2013-4-3,41.5,31.1,22.6,16.3,12.6,10.0,62,47,28,29.42,29.13,7,2,21,0.00
2013-4-4,53.1,35.4,21.7,24.6,18.4,13.2,81,53,27,29.51,29.21,4,0,13,0.00
2013-4-5,53.3,37.3,24.7,31.3,24.9,17.7,88,63,34,29.21,29.00,7,1,17,0.00
2013-4-6,41.3,30.3,22.1,18.6,11.8,6.3,73,48,24,29.57,29.20,6,1,23,0.00
2013-4-7,34.3,28.2,25.4,19.8,18.1,14.4,75,66,43,29.54,29.41,0,0,4,0.00
2013-4-8,60.8,43.8,29.6,36.4,32.9,27.1,91,68,35,29.38,29.18,3,0,13,0.00
2013-4-9,60.0,47.3,38.1,47.8,41.1,33.9,93,80,51,29.28,29.14,6,0,16,0.60
2013-4-10,51.4,44.5,39.1,47.3,42.0,37.8,95,91,82,29.27,29.17,2,0,5,0.50
2013-4-11,42.2,39.4,35.5,40.0,27.8,19.1,95,65,41,29.44,29.17,3,0,13,0.00
2013-4-12,35.8,31.6,29.1,29.9,27.1,20.0,93,84,52,29.44,29.13,0,0,1,0.00
2013-4-13,31.8,31.7,31.6,30.3,30.1,30.0,94,94,93,29.14,29.11,0,0,0,0.00